Tracking 28792 objects as of 23-Apr-2024
HD Live streaming from Space Station
objects crossing your sky now

ARIANE 44L DEB

Track ARIANE 44L DEB now!
10-day predictions


NORAD ID: 48419
Int'l Code: 1991-075Q
Perigee: 448.1 km
Apogee: 24,937.0 km
Inclination: 7.4 °
Period: 436.6 minutes
Semi major axis: 19063 km
RCS: Unknown
Launch date: October 29, 1991
Source: France (FR)
Launch site: FRENCH GUIANA (FRGUI)

Note: This is SATELLITE DEBRIS
Your satellite tracking list
Your tracking list is empty




NASA's NSSDC Master Catalog

Two Line Element Set (TLE):
1 48419U 91075Q   24112.76429123  .00012096  00000-0  25749-1 0  9998
2 48419   7.4365 339.0165 6422952 104.2159 330.3789  3.29835667123897
Source of the keplerian elements: AFSPC